ATLAS 5 CENTAUR DEB, 44676

Orbit data source: Space-Track

ATLAS 5 CENTAUR DEB, 44676 is space debris in HEO originally from a launch on Wed, 17 Oct 2018 UTC launched from the Air Force Eastern Test Range (AFETR). Debris objects in space refer to the collection of defunct objects orbiting the Earth. Examples of debris include non-operational satellites, rocket bodies, and fragments generated from explosions, collisions, or faulty payload assembly.

Not visible in the next 10 days
ATLAS 5 CENTAUR DEB details
Identifier
44676, 2018-079AN
Orbit
HEO
Last TLE update2 days ago
Origin
Flag of USULA (US)
ManufacturerULA Decatur
MissionSpacecraft
Bus & MotorUnknown
MassUnknown
Launch date (UTC)
2018-10-17 (6 years ago)
Launch vehicleUnknown
Launch site
Air Force Eastern Test Range (AFETR)
Object type
Payload
Rocket body
Debris
Shape & HBRUnknown
Radar Cross SectionRCS unknown

Expand to show TLE details & history

TLE from 2 days ago
0 ATLAS 5 CENTAUR DEB
1 44676U 18079AN  25024.21617413 -.00000178  00000-0  00000-0 0  9997
2 44676  13.1648  69.7723 4734560 242.2939  62.1804  1.82847546 37574
Epoch: 2025-01-24T05:11Z
Definitive object data (Epoch: 2025-01-24T05:11:17.444Z)
Latitude0.00002°
Longitude-131.77614°
Altitude21,738.35 km
Speed3.774 km/s
True Right ascension04h 39m 18s
True Declination0° 00' 00"
Sunlit
Object was in daylight at TLE epoch
Visualization TLE readout
Latitude-12.77006°
Longitude122.8936°
Altitude8,588.398 km
Speed6.258 km/s
Apparent Right ascension22h 28m 00s
Apparent Declination-35° 02' 37"
Sunlit
Object is in daylight
Visualization observer readout
Local Sidereal Time19:47:18
Azimuth147.894° SSE
Elevation6.393°
Doppler factor1
Orbital elements
Apogee altitude35,249.223 km
Perigee altitude8,497.527 km
Semi-major axis28,251.512 km
Eccentricity0.473456
Inclination13.1648°
RAAN69.7723°
Arg. of periapsis242.2939°
True anomaly117.64532°
Mean anomaly62.1804°
Eccentric anomaly89.30544°
Mean motion0.45707 °/min
BSTARUnknown
Orbital period787.63 mins
Loading maneuver chart data...

ATLAS 5 CENTAUR DEB Visibility forecast

Observer location: undefined°, undefined

ATLAS 5 CENTAUR DEB is not visible in the next 10 days
Span
Click to sort rows by Start time (UTC) header in descending order
Start Az.
Max El. time (UTC)
Max El. Az.
Max El.
End time (UTC)
End Az.
|